Teterboro, NJ

12:14 AM EDT on May 29, 2017 (GMT -0400)
Teterboro

Weather History for KTEB - May, 2014

Change the Weather History Date:

Tuesday, May 13, 2014

  Actual Average Record
Temperature  
Mean Temperature 64 °F -  
Max Temperature 73 °F 69 °F 87 °F (2004)
Min Temperature 57 °F 48 °F 42 °F (2005)
Degree Days  
Heating Degree Days 1    
Growing Degree Days 14 (Base 50)    
Moisture  
Dew Point 48 °F    
Average Humidity 55    
Maximum Humidity 84    
Minimum Humidity 34    
Precipitation  
Precipitation 0.00 in - - ()
Sea Level Pressure  
Sea Level Pressure 30.17 in    
Wind  
Wind Speed 5 mph (East)    
Max Wind Speed 15 mph    
Max Gust Speed 23 mph    
Visibility 10 miles    
Events      
Averages and records for this station are not official NWS values.
T = Trace of Precipitation, MM = Missing Value Source: NWS Daily Summary

Daily Weather History Graph

Daily Weather History Graph

Search for Another Location

Airport or City:

Trip Planner

Search our weather history database for the weather conditions in past years. The results will help you decide how hot, cold, wet, or windy it might be!

Date:

Astronomy

May. 13, 2014 Rise Set
Actual Time 5:40 AM EDT 8:04 PM EDT
Civil Twilight 5:09 AM EDT 8:36 PM EDT
Nautical Twilight 4:31 AM EDT 9:14 PM EDT
Astronomical Twilight 3:49 AM EDT 9:57 PM EDT
Moon 7:03 PM EDT (5/13) 4:56 AM EDT (5/13)
Length of Visible Light 15h 26m
Length of Day
14h 24m
Waxing Gibbous, 98% of the Moon is Illuminated
May 13
Waxing Gibbous
May 14
Full
May 21
Last Quarter
May 28
New
Jun 5
First Quarter

Hourly Weather History & Observations

Time (EDT) Temp. Dew Point Humidity Pressure Visibility Wind Dir Wind Speed Gust Speed Precip Events Conditions
12:51 AM 71.1 °F 61.0 °F 70% 30.03 in 10.0 mi Calm Calm - N/A   Clear
1:51 AM 68.0 °F 61.0 °F 78% 30.02 in 10.0 mi Calm Calm - N/A   Clear
2:51 AM 68.0 °F 62.1 °F 81% 30.01 in 10.0 mi Calm Calm - N/A   Clear
3:51 AM 66.0 °F 61.0 °F 84% 30.02 in 9.0 mi Calm Calm - N/A   Clear
4:51 AM 66.2 °F 60.8 °F 83% 30.04 in 10.0 mi Calm Calm - N/A   Clear
5:51 AM 66.9 °F 60.1 °F 79% 30.07 in 10.0 mi NE 4.6 mph - N/A   Clear
6:51 AM 64.0 °F 48.9 °F 58% 30.12 in 10.0 mi East 12.7 mph 21.9 mph N/A   Clear
7:51 AM 62.1 °F 44.1 °F 52% 30.15 in 10.0 mi ENE 15.0 mph 23.0 mph N/A   Clear
8:51 AM 62.6 °F 42.8 °F 48% 30.18 in 10.0 mi East 15.0 mph 20.7 mph N/A   Clear
9:51 AM 64.9 °F 43.0 °F 45% 30.21 in 10.0 mi ENE 10.4 mph 17.3 mph N/A   Clear
10:51 AM 64.9 °F 41.0 °F 42% 30.21 in 10.0 mi ENE 15.0 mph 21.9 mph N/A   Clear
11:51 AM 66.2 °F 42.8 °F 43% 30.21 in 10.0 mi East 10.4 mph 16.1 mph N/A   Clear
12:51 PM 66.9 °F 44.1 °F 44% 30.22 in 10.0 mi East 5.8 mph - N/A   Clear
1:51 PM 69.1 °F 44.1 °F 40% 30.20 in 10.0 mi East 9.2 mph 16.1 mph N/A   Clear
2:51 PM 70.0 °F 44.1 °F 39% 30.20 in 10.0 mi ENE 10.4 mph - N/A   Clear
3:51 PM 71.1 °F 44.1 °F 38% 30.19 in 10.0 mi ENE 10.4 mph - N/A   Clear
4:51 PM 71.1 °F 43.0 °F 36% 30.20 in 10.0 mi ENE 6.9 mph - N/A   Clear
5:51 PM 71.1 °F 41.0 °F 34% 30.19 in 10.0 mi East 10.4 mph - N/A   Mostly Cloudy
6:51 PM 69.1 °F 42.1 °F 38% 30.20 in 10.0 mi East 8.1 mph - N/A   Clear
7:51 PM 64.9 °F 46.9 °F 52% 30.24 in 10.0 mi SSW 13.8 mph - N/A   Clear
8:51 PM 61.0 °F 44.1 °F 54% 30.25 in 10.0 mi South 5.8 mph - N/A   Clear
9:51 PM 60.1 °F 44.1 °F 55% 30.26 in 10.0 mi SSE 6.9 mph - N/A   Clear
10:51 PM 57.9 °F 45.0 °F 62% 30.27 in 10.0 mi SSE 6.9 mph - N/A   Clear
11:51 PM 57.0 °F 46.0 °F 67% 30.28 in 10.0 mi SSE 4.6 mph - N/A   Clear